Location: Newark
(33.6333°S, 78.8500°W)
Time: 10:33:49
(UTC+00:00)

Tiros 1 despin weight - Pass Details

Date: 23 September 2019
Orbit: 594 x 643 km, 48.2° (Epoch: 14 October)

Event Time Altitude Azimuth Distance (km) Brightness Sun altitude
Rises 02:24:08 0° 347° (NNW) 2,831 - -39.0°
Reaches altitude 10° 02:26:57 10° 5° (N) 1,944 - -39.5°
Maximum altitude 02:30:04 19° 50° (NE) 1,472 - -40.0°
Drops below altitude 10° 02:33:15 10° 95° (E) 1,982 - -40.6°
Sets 02:36:09 0° 112° (ESE) 2,905 - -41.1°
